Lid_Strength_Index
-0 0 2 3 8 8 8 7 5 6 5 4 5 6 7 7 6 9 1 0 -0 0 -1 -1 -0 -1 -1 -1 -1 -1 -1 -1 -1 -1 -1 -1 -1 -1 -1 -1 -1 -1 -1 -1 -1 -1 -1 -1 -1
2 2 3 4 9 10 8 6 7 5 5 4 4 5 6 5 3 3 2 0 -0 -0 -1 -1 -1 -0 -1 -1 -1 -1 -1 -1 -1 -1 -1 -1 -1 -1 -1 -1 -1 -1 -1 -1 -1 -1 -1 -1 -1
1 1 4 7 8 10 8 6 6 6 5 5 5 4 5 5 3 2 1 -0 -0 -0 -0 -1 -1 -0 -1 -1 -1 -1 -1 -1 -1 -1 -1 -1 -1 -1 -1 -1 -1 -1 -1 -1 -1 -1 -1 -1 -1
2 2 4 7 8 7 7 6 6 7 6 6 6 6 4 2 2 1 0 -0 0 -0 -0 -0 -1 -0 -1 -1 -1 -1 -1 -1 -1 -1 -1 -1 -1 -1 -1 -1 -1 -1 -1 -1 -1 -1 -1 -1 -1
2 3 6 7 7 6 5 5 6 6 6 6 6 7 6 2 1 0 0 0 0 0 0 -0 -1 -1 -1 -1 -1 -1 -1 -1 -1 -1 -1 -1 -1 -1 -1 -1 -1 -1 -1 -1 -1 -1 -1 -1 -1
5 5 8 8 7 6 5 5 5 5 5 5 6 6 6 1 1 1 0 0 0 0 0 -1 -1 -1 -1 -1 -1 -1 -1 -1 -1 -1 -1 -1 -1 -1 -1 -1 -1 -1 -1 -1 -1 -1 -1 -1 -1
6 6 8 7 7 6 6 4 5 5 5 5 4 6 4 4 1 0 0 -0 0 -0 0 -0 -1 -1 -1 -1 -1 -1 -1 -1 -1 -1 -1 -1 -1 -1 -1 -1 -1 -1 -1 -1 -1 -1 -1 -1 -1
5 6 8 7 7 7 5 5 5 6 6 4 4 7 5 3 2 0 0 0 0 0 0 0 -1 -1 -1 -1 -1 -1 -1 -1 -1 -1 -1 -1 -1 -1 -1 -1 -1 -1 -1 -1 -1 -1 -2 -2 -2
5 8 9 8 8 7 5 7 5 4 6 5 5 5 3 3 3 2 1 1 1 1 0 0 0 -1 -1 -1 -1 -1 -1 -1 -1 -1 -1 -1 -1 -1 -1 -1 -1 -1 -1 -1 -1 -1 -2 -1 -2
7 8 8 7 7 7 7 7 6 6 6 6 5 4 3 3 3 3 2 2 1 2 1 0 0 -0 -1 -1 -1 -1 -1 -1 -1 -1 -1 -1 -2 -2 -1 -1 -1 -1 -1 -1 -1 -1 -1 -1 -1
6 8 7 7 6 6 7 7 6 7 8 6 6 5 4 4 3 4 2 2 1 1 1 1 -0 0 -0 -0 -0 -1 -1 -1 -1 -1 -1 -2 -1 -1 -1 -1 -1 -1 -1 -1 -1 -1 -1 -1 -1
8 6 6 6 6 6 7 6 7 6 6 5 5 4 4 4 4 3 3 2 2 1 1 1 0 0 -0 -0 -0 -1 -0 -1 -0 -1 -1 -1 -0 -1 -1 -0 -1 -1 -1 -1 -1 -1 -2 -1 -2
6 5 5 5 5 5 5 6 7 6 5 4 5 5 5 4 4 3 2 2 2 1 1 1 0 -0 -0 -0 -0 -0 -0 -0 -1 -1 -1 -1 -1 -0 -1 -1 -1 -1 -1 -1 -1 -1 -1 -1 -1
4 5 5 5 5 4 6 6 6 5 4 5 5 5 5 4 4 3 3 3 1 1 0 0 0 -0 -0 0 -0 -0 -0 -1 -1 -1 -1 -2 -1 -1 -0 -1 -1 -1 -1 -1 -1 -1 -1 -1 -1
5 6 5 5 4 5 4 7 6 4 4 5 4 5 5 4 3 3 3 2 2 1 -0 -0 0 -0 -0 0 -0 -0 -0 -1 -0 -1 -1 -1 -2 -1 -1 -0 -0 -1 -2 -1 -1 -1 -1 -0 -1
6 6 8 5 5 5 5 8 5 3 4 5 4 4 4 4 3 3 2 2 1 1 0 -0 -0 0 0 -0 -0 -0 -0 -0 -0 -1 -1 -1 -1 -2 -1 -0 -0 -1 -1 -1 -1 -0 -0 -0 -0
6 9 8 7 5 5 6 8 5 4 4 4 4 4 4 4 3 2 2 2 1 0 -0 0 -0 0 0 0 -0 -0 -0 -0 -0 -1 -1 -1 -1 -1 -1 -1 -1 -2 -1 -0 -0 -0 -0 0 0
9 9 8 9 6 6 7 7 5 4 4 4 4 4 3 3 3 2 2 1 1 1 -0 -0 0 0 0 0 0 0 0 0 -0 -0 -1 -1 -1 -1 -1 -1 -1 -1 -0 -0 -0 -0 -0 0 0
7 8 9 7 6 7 7 7 6 5 5 5 4 4 4 3 2 2 2 1 1 0 -0 0 0 0 1 1 1 2 2 1 0 -0 -1 -0 -1 -1 -1 -0 -1 -1 -0 -1 -1 -0 0 1 -0
7 8 9 7 6 7 7 8 6 5 5 5 4 4 4 3 3 2 1 1 1 1 0 0 0 0 1 1 1 1 1 1 0 -0 -0 -1 -1 -1 -0 -1 -0 -0 -0 -0 -0 0 1 1 0
8 8 9 9 7 6 7 9 7 6 5 4 4 4 3 3 3 2 2 1 1 1 1 0 0 0 0 0 0 0 1 0 1 1 0 -0 -1 -1 -1 -1 -1 -0 -0 1 0 0 0 2 1
9 7 7 8 9 12 7 13 9 7 7 5 4 4 4 3 3 2 2 2 1 1 0 0 0 0 0 0 1 1 2 3 2 1 1 0 -0 -0 -1 -1 -1 -0 0 -0 0 -0 0 1 2
8 6 7 8 9 10 10 12 9 7 9 7 6 4 4 3 3 3 2 2 1 1 1 0 0 1 0 0 1 1 2 1 1 1 1 0 -0 -0 -0 -1 -0 -0 -0 -0 -0 -0 0 0 1
6 7 7 8 9 15 11 15 12 9 8 7 5 5 4 3 3 2 2 1 1 1 1 1 1 1 0 1 1 1 2 2 2 2 2 1 1 0 -0 -0 -0 -0 -0 -0 -0 -0 -0 0 0
7 9 16 17 16 16 10 11 10 7 6 6 5 4 4 3 3 3 2 2 1 1 1 1 1 1 0 1 1 1 1 1 1 2 1 1 1 1 0 -0 -0 0 -0 -0 -0 -0 0 0 0
8 9 15 21 18 15 10 13 10 6 5 5 5 4 4 4 3 3 2 2 2 1 1 1 1 1 1 1 1 1 1 1 1 1 1 1 1 1 -0 -0 -0 -0 -0 -0 -0 0 0 -0 1
9 12 8 15 13 15 12 10 9 7 7 5 5 5 4 4 3 3 3 2 2 1 1 1 1 0 1 1 1 1 1 1 1 1 0 1 0 0 0 -0 0 -0 0 0 -0 0 0 1 0
8 7 13 13 20 19 13 12 13 10 10 6 6 6 4 4 3 3 2 2 2 1 1 1 1 1 0 1 1 1 1 1 0 0 1 1 0 0 0 0 1 0 0 -0 -0 0 1 2 2
9 10 11 13 14 19 17 13 8 8 7 7 6 6 5 4 4 3 2 2 1 1 1 1 1 1 1 1 1 1 1 1 1 1 1 0 0 0 1 1 1 1 0 1 0 2 3 4 3
7 9 9 17 16 15 15 15 6 6 6 5 5 5 4 4 3 3 2 2 2 2 1 1 1 1 1 0 1 1 1 1 1 1 1 1 1 0 1 1 2 2 3 3 5 4 4 5 5